Year,Month,Day,Hour,Minute,Value (Times are PST for windspeed in km/hr)
2015,10,10,00,00,17.80
2015,10,10,00,01,14.40
2015,10,10,00,02,21.90
2015,10,10,00,03,20.10
2015,10,10,00,04,16.60
2015,10,10,00,05,21.50
2015,10,10,00,06,19.40
2015,10,10,00,07,20.10
2015,10,10,00,08,21.20
2015,10,10,00,09,22.80
2015,10,10,00,10,10.80
2015,10,10,00,11,18.50
2015,10,10,00,12,19.50
2015,10,10,00,13,14.50
2015,10,10,00,14,15.50
2015,10,10,00,15,10.60
2015,10,10,00,16,16.30
2015,10,10,00,17,12.80
2015,10,10,00,18,17.80
2015,10,10,00,19,18.80
2015,10,10,00,20,13.80
2015,10,10,00,21,9.50
2015,10,10,00,22,12.80
2015,10,10,00,23,10.90
2015,10,10,00,24,18.40
2015,10,10,00,25,10.30
2015,10,10,00,26,21.50
2015,10,10,00,27,17.60
2015,10,10,00,28,17.30
2015,10,10,00,29,11.60
2015,10,10,00,30,23.00
2015,10,10,00,31,15.80
2015,10,10,00,32,19.50
2015,10,10,00,33,20.30
2015,10,10,00,34,22.50
2015,10,10,00,35,14.40
2015,10,10,00,36,8.90
2015,10,10,00,37,16.30
2015,10,10,00,38,11.70
2015,10,10,00,39,18.30
2015,10,10,00,40,20.20
2015,10,10,00,41,10.90
2015,10,10,00,42,22.70
2015,10,10,00,43,15.60
2015,10,10,00,44,20.70
2015,10,10,00,45,14.70
2015,10,10,00,46,17.60
2015,10,10,00,47,20.10
2015,10,10,00,48,17.30
2015,10,10,00,49,17.20
2015,10,10,00,50,19.80
2015,10,10,00,51,12.10
2015,10,10,00,52,19.10
2015,10,10,00,53,15.50
2015,10,10,00,54,12.90
2015,10,10,00,55,16.20
2015,10,10,00,56,16.90
2015,10,10,00,57,8.30
2015,10,10,00,58,14.70
2015,10,10,00,59,25.50
2015,10,10,01,00,17.10
2015,10,10,01,01,18.70
2015,10,10,01,02,14.30
2015,10,10,01,03,7.60
2015,10,10,01,04,7.20
2015,10,10,01,05,6.90
2015,10,10,01,06,7.80
2015,10,10,01,07,14.50
2015,10,10,01,08,15.00
2015,10,10,01,09,17.80
2015,10,10,01,10,12.80
2015,10,10,01,11,12.00
2015,10,10,01,12,19.90
2015,10,10,01,13,13.30
2015,10,10,01,14,16.40
2015,10,10,01,15,15.40
2015,10,10,01,16,15.70
2015,10,10,01,17,12.30
2015,10,10,01,18,17.10
2015,10,10,01,19,16.50
2015,10,10,01,20,16.20
2015,10,10,01,21,16.30
2015,10,10,01,22,18.10
2015,10,10,01,23,15.60
2015,10,10,01,24,13.50
2015,10,10,01,25,16.00
2015,10,10,01,26,16.30
2015,10,10,01,27,11.80
2015,10,10,01,28,6.90
2015,10,10,01,29,16.50
2015,10,10,01,30,11.40
2015,10,10,01,31,6.20
2015,10,10,01,32,11.90
2015,10,10,01,33,11.60
2015,10,10,01,34,17.40
2015,10,10,01,35,21.00
2015,10,10,01,36,15.60
2015,10,10,01,37,16.00
2015,10,10,01,38,11.20
2015,10,10,01,39,6.00
2015,10,10,01,40,9.50
2015,10,10,01,41,16.30
2015,10,10,01,42,7.80
2015,10,10,01,43,14.10
2015,10,10,01,44,12.00
2015,10,10,01,45,10.80
2015,10,10,01,46,12.20
2015,10,10,01,47,13.50
2015,10,10,01,48,13.40
2015,10,10,01,49,12.80
2015,10,10,01,50,9.50
2015,10,10,01,51,6.30
2015,10,10,01,52,12.80
2015,10,10,01,53,11.40
2015,10,10,01,54,9.70
2015,10,10,01,55,8.90
2015,10,10,01,56,12.90
2015,10,10,01,57,13.30
2015,10,10,01,58,7.40
2015,10,10,01,59,10.60
2015,10,10,02,00,3.40
2015,10,10,02,01,11.10
2015,10,10,02,02,6.30
2015,10,10,02,03,12.60
2015,10,10,02,04,8.00
2015,10,10,02,05,6.30
2015,10,10,02,06,7.90
2015,10,10,02,07,4.20
2015,10,10,02,08,4.90
2015,10,10,02,09,2.60
2015,10,10,02,10,3.90
2015,10,10,02,11,5.80
2015,10,10,02,12,5.30
2015,10,10,02,13,5.50
2015,10,10,02,14,4.50
2015,10,10,02,15,5.20
2015,10,10,02,16,3.00
2015,10,10,02,17,1.70
2015,10,10,02,18,3.00
2015,10,10,02,19,5.10
2015,10,10,02,20,2.70
2015,10,10,02,21,4.50
2015,10,10,02,22,7.30
2015,10,10,02,23,5.20
2015,10,10,02,24,5.90
2015,10,10,02,25,2.70
2015,10,10,02,26,3.00
2015,10,10,02,27,2.60
2015,10,10,02,28,3.20
2015,10,10,02,29,3.30
2015,10,10,02,30,4.40
2015,10,10,02,31,4.90
2015,10,10,02,32,3.80
2015,10,10,02,33,2.90
2015,10,10,02,34,3.90
2015,10,10,02,35,3.50
2015,10,10,02,36,8.60
2015,10,10,02,37,7.30
2015,10,10,02,38,3.00
2015,10,10,02,39,3.30
2015,10,10,02,40,4.30
2015,10,10,02,41,8.60
2015,10,10,02,42,1.80
2015,10,10,02,43,1.40
2015,10,10,02,44,4.00
2015,10,10,02,45,6.70
2015,10,10,02,46,7.70
2015,10,10,02,47,8.90
2015,10,10,02,48,9.40
2015,10,10,02,49,9.20
2015,10,10,02,50,7.80
2015,10,10,02,51,6.90
2015,10,10,02,52,9.30
2015,10,10,02,53,13.70
2015,10,10,02,54,6.40
2015,10,10,02,55,8.90
2015,10,10,02,56,4.00
2015,10,10,02,57,5.80
2015,10,10,02,58,8.50
2015,10,10,02,59,9.50
2015,10,10,03,00,10.90
2015,10,10,03,01,10.00
2015,10,10,03,02,8.90
2015,10,10,03,04,13.10
2015,10,10,03,05,8.20
2015,10,10,03,06,10.60
2015,10,10,03,07,10.10
2015,10,10,03,08,13.90
2015,10,10,03,09,11.90
2015,10,10,03,10,14.50
2015,10,10,03,11,13.30
2015,10,10,03,12,5.50
2015,10,10,03,13,6.40
2015,10,10,03,14,11.10
2015,10,10,03,15,9.70
2015,10,10,03,16,12.50
2015,10,10,03,17,10.10
2015,10,10,03,18,7.00
2015,10,10,03,19,10.90
2015,10,10,03,20,9.50
2015,10,10,03,21,11.60
2015,10,10,03,22,8.10
2015,10,10,03,23,12.00
2015,10,10,03,24,13.00
2015,10,10,03,25,15.60
2015,10,10,03,26,11.40
2015,10,10,03,27,14.80
2015,10,10,03,28,11.70
2015,10,10,03,29,11.60
2015,10,10,03,30,12.90
2015,10,10,03,31,14.60
2015,10,10,03,32,15.00
2015,10,10,03,33,11.10
2015,10,10,03,34,9.40
2015,10,10,03,35,11.70
2015,10,10,03,36,14.10
2015,10,10,03,37,14.10
2015,10,10,03,38,9.00
2015,10,10,03,39,10.60
2015,10,10,03,40,12.20
2015,10,10,03,41,7.20
2015,10,10,03,42,14.20
2015,10,10,03,43,15.20
2015,10,10,03,44,15.70
2015,10,10,03,45,8.10
2015,10,10,03,46,15.00
2015,10,10,03,47,13.70
2015,10,10,03,48,11.20
2015,10,10,03,49,15.70
2015,10,10,03,50,10.60
2015,10,10,03,51,6.10
2015,10,10,03,52,14.20
2015,10,10,03,53,16.70
2015,10,10,03,54,11.30
2015,10,10,03,55,15.00
2015,10,10,03,56,19.50
2015,10,10,03,57,11.60
2015,10,10,03,58,12.50
2015,10,10,03,59,15.00
2015,10,10,04,00,9.40
2015,10,10,04,01,14.40
2015,10,10,04,02,13.40
2015,10,10,04,03,11.90
2015,10,10,04,04,12.50
2015,10,10,04,05,15.80
2015,10,10,04,06,8.80
2015,10,10,04,07,14.10
2015,10,10,04,08,10.20
2015,10,10,04,09,11.90
2015,10,10,04,10,8.90
2015,10,10,04,11,11.90
2015,10,10,04,12,17.00
2015,10,10,04,13,5.90
2015,10,10,04,14,16.20
2015,10,10,04,15,14.80
2015,10,10,04,16,17.00
2015,10,10,04,17,12.90
2015,10,10,04,18,8.80
2015,10,10,04,19,10.40
2015,10,10,04,20,17.50
2015,10,10,04,21,10.90
2015,10,10,04,22,5.40
2015,10,10,04,23,17.90
2015,10,10,04,24,10.70
2015,10,10,04,25,7.50
2015,10,10,04,26,6.70
2015,10,10,04,27,10.90
2015,10,10,04,28,11.30
2015,10,10,04,29,11.80
2015,10,10,04,30,9.80
2015,10,10,04,31,9.20
2015,10,10,04,32,6.30
2015,10,10,04,33,12.30
2015,10,10,04,34,9.60
2015,10,10,04,35,12.30
2015,10,10,04,36,15.40
2015,10,10,04,37,7.90
2015,10,10,04,38,13.20
2015,10,10,04,39,8.30
2015,10,10,04,40,7.50
2015,10,10,04,41,8.70
2015,10,10,04,42,6.10
2015,10,10,04,43,5.80
2015,10,10,04,44,10.90
2015,10,10,04,45,7.00
2015,10,10,04,46,3.90
2015,10,10,04,47,7.80
2015,10,10,04,48,5.90
2015,10,10,04,49,5.40
2015,10,10,04,50,4.50
2015,10,10,04,51,2.10
2015,10,10,04,52,4.40
2015,10,10,04,53,3.70
2015,10,10,04,54,5.80
2015,10,10,04,55,4.30
2015,10,10,04,56,1.30
2015,10,10,04,57,1.70
2015,10,10,04,58,3.30
2015,10,10,04,59,2.70
2015,10,10,05,00,2.10
2015,10,10,05,01,0.90
2015,10,10,05,02,1.80
2015,10,10,05,03,2.00
2015,10,10,05,04,3.10
2015,10,10,05,05,2.00
2015,10,10,05,06,0.20
2015,10,10,05,07,0.20
2015,10,10,05,08,0.60
2015,10,10,05,09,1.20
2015,10,10,05,10,1.40
2015,10,10,05,11,1.30
2015,10,10,05,12,0.60
2015,10,10,05,13,1.00
2015,10,10,05,14,0.50
2015,10,10,05,15,2.40
2015,10,10,05,16,4.60
2015,10,10,05,17,3.80
2015,10,10,05,18,2.00
2015,10,10,05,19,0.90
2015,10,10,05,20,0.10
2015,10,10,05,21,2.00
2015,10,10,05,22,4.80
2015,10,10,05,23,5.30
2015,10,10,05,24,5.70
2015,10,10,05,25,6.00
2015,10,10,05,26,3.00
2015,10,10,05,27,2.00
2015,10,10,05,28,2.40
2015,10,10,05,29,2.60
2015,10,10,05,30,3.90
2015,10,10,05,31,3.60
2015,10,10,05,32,3.50
2015,10,10,05,33,3.60
2015,10,10,05,34,3.90
2015,10,10,05,35,3.40
2015,10,10,05,36,3.50
2015,10,10,05,37,6.10
2015,10,10,05,38,5.10
2015,10,10,05,39,6.50
2015,10,10,05,40,4.30
2015,10,10,05,41,1.90
2015,10,10,05,42,2.30
2015,10,10,05,43,0.00
2015,10,10,05,44,1.00
2015,10,10,05,45,0.80
2015,10,10,05,46,1.40
2015,10,10,05,47,2.30
2015,10,10,05,48,1.20
2015,10,10,05,49,2.70
2015,10,10,05,50,0.70
2015,10,10,05,51,1.80
2015,10,10,05,52,2.40
2015,10,10,05,53,2.70
2015,10,10,05,54,1.70
2015,10,10,05,55,0.60
2015,10,10,05,56,1.60
2015,10,10,05,57,2.10
2015,10,10,05,58,3.60
2015,10,10,05,59,2.50
2015,10,10,06,00,1.40
2015,10,10,06,01,2.70
2015,10,10,06,02,2.40
2015,10,10,06,03,0.60
2015,10,10,06,04,1.90
2015,10,10,06,05,2.00
2015,10,10,06,06,1.90
2015,10,10,06,07,3.10
2015,10,10,06,08,2.70
2015,10,10,06,09,3.10
2015,10,10,06,10,4.60
2015,10,10,06,11,2.60
2015,10,10,06,12,1.50
2015,10,10,06,13,1.90
2015,10,10,06,14,2.60
2015,10,10,06,15,0.40
2015,10,10,06,16,2.10
2015,10,10,06,17,3.10
2015,10,10,06,18,1.90
2015,10,10,06,19,1.20
2015,10,10,06,20,1.90
2015,10,10,06,21,5.10
2015,10,10,06,22,4.50
2015,10,10,06,23,4.20
2015,10,10,06,24,3.40
2015,10,10,06,25,4.70
2015,10,10,06,26,4.60
2015,10,10,06,27,2.50
2015,10,10,06,28,3.10
2015,10,10,06,29,6.00
2015,10,10,06,30,5.50
2015,10,10,06,31,6.10
2015,10,10,06,32,1.60
2015,10,10,06,33,1.20
2015,10,10,06,34,2.70
2015,10,10,06,35,5.30
2015,10,10,06,36,3.50
2015,10,10,06,37,3.30
2015,10,10,06,38,2.10
2015,10,10,06,39,2.10
2015,10,10,06,40,2.70
2015,10,10,06,41,2.00
2015,10,10,06,42,0.20
2015,10,10,06,43,2.50
2015,10,10,06,44,6.20
2015,10,10,06,45,3.80
2015,10,10,06,46,1.90
2015,10,10,06,47,5.50
2015,10,10,06,48,4.50
2015,10,10,06,49,4.80
2015,10,10,06,50,5.80
2015,10,10,06,51,3.00
2015,10,10,06,52,4.50
2015,10,10,06,53,6.60
2015,10,10,06,54,5.30
2015,10,10,06,55,6.90
2015,10,10,06,56,4.50
2015,10,10,06,57,7.20
2015,10,10,06,58,9.10
2015,10,10,06,59,2.60
2015,10,10,07,00,3.40
2015,10,10,07,01,5.70
2015,10,10,07,02,4.20
2015,10,10,07,03,4.70
2015,10,10,07,04,2.20
2015,10,10,07,05,0.50
2015,10,10,07,06,1.60
2015,10,10,07,07,1.70
2015,10,10,07,08,3.00
2015,10,10,07,09,5.80
2015,10,10,07,10,5.80
2015,10,10,07,11,5.70
2015,10,10,07,12,3.90
2015,10,10,07,13,2.10
2015,10,10,07,14,7.50
2015,10,10,07,15,6.50
2015,10,10,07,16,2.00
2015,10,10,07,17,3.70
2015,10,10,07,18,3.60
2015,10,10,07,19,2.20
2015,10,10,07,20,1.30
2015,10,10,07,21,1.50
2015,10,10,07,22,0.10
2015,10,10,07,23,0.20
2015,10,10,07,24,0.70
2015,10,10,07,25,1.00
2015,10,10,07,26,2.40
2015,10,10,07,27,2.00
2015,10,10,07,28,2.40
2015,10,10,07,29,2.40
2015,10,10,07,30,2.10
2015,10,10,07,31,1.50
2015,10,10,07,32,2.80
2015,10,10,07,33,2.90
2015,10,10,07,34,2.60
2015,10,10,07,35,1.70
2015,10,10,07,36,2.90
2015,10,10,07,37,3.60
2015,10,10,07,38,3.00
2015,10,10,07,39,2.70
2015,10,10,07,40,1.60
2015,10,10,07,41,2.40
2015,10,10,07,42,1.60
2015,10,10,07,43,0.40
2015,10,10,07,44,1.10
2015,10,10,07,45,0.10
2015,10,10,07,46,0.10
2015,10,10,07,47,0.10
2015,10,10,07,48,0.40
2015,10,10,07,49,1.30
2015,10,10,07,50,1.50
2015,10,10,07,51,3.70
2015,10,10,07,52,2.10
2015,10,10,07,53,3.00
2015,10,10,07,54,2.10
2015,10,10,07,55,2.10
2015,10,10,07,56,1.40
2015,10,10,07,57,2.70
2015,10,10,07,58,2.30
2015,10,10,07,59,0.50
2015,10,10,08,00,1.30
2015,10,10,08,01,5.10
2015,10,10,08,02,2.10
2015,10,10,08,03,2.00
2015,10,10,08,04,6.30
2015,10,10,08,05,9.00
2015,10,10,08,06,5.40
2015,10,10,08,07,6.70
2015,10,10,08,08,4.70
2015,10,10,08,09,3.50
2015,10,10,08,10,8.80
2015,10,10,08,11,6.30
2015,10,10,08,12,4.70
2015,10,10,08,13,4.00
2015,10,10,08,14,3.80
2015,10,10,08,15,6.10
2015,10,10,08,16,8.10
2015,10,10,08,17,4.60
2015,10,10,08,18,11.30
2015,10,10,08,19,9.40
2015,10,10,08,20,11.10
2015,10,10,08,21,6.70
2015,10,10,08,22,5.90
2015,10,10,08,23,4.90
2015,10,10,08,24,11.20
2015,10,10,08,25,4.60
2015,10,10,08,26,8.90
2015,10,10,08,27,5.60
2015,10,10,08,28,4.50
2015,10,10,08,29,8.80
2015,10,10,08,30,4.10
2015,10,10,08,31,1.40
2015,10,10,08,32,3.70
2015,10,10,08,33,2.80
2015,10,10,08,34,0.30
2015,10,10,08,35,2.00
2015,10,10,08,36,5.20
2015,10,10,08,37,2.50
2015,10,10,08,38,1.00
2015,10,10,08,39,0.80
2015,10,10,08,40,0.60
2015,10,10,08,41,0.10
2015,10,10,08,42,1.10
2015,10,10,08,43,0.70
2015,10,10,08,44,1.10
2015,10,10,08,45,1.30
2015,10,10,08,46,2.00
2015,10,10,08,47,2.40
2015,10,10,08,48,1.50
2015,10,10,08,49,0.10
2015,10,10,08,50,0.00
2015,10,10,08,51,0.90
2015,10,10,08,52,4.00
2015,10,10,08,53,3.50
2015,10,10,08,54,2.50
2015,10,10,08,55,1.00
2015,10,10,08,56,1.00
2015,10,10,08,57,0.20
2015,10,10,08,58,1.80
2015,10,10,08,59,3.00
2015,10,10,09,00,5.40
2015,10,10,09,01,5.60
2015,10,10,09,02,2.30
2015,10,10,09,03,2.10
2015,10,10,09,04,2.30
2015,10,10,09,05,2.30
2015,10,10,09,06,3.80
2015,10,10,09,07,7.30
2015,10,10,09,08,11.40
2015,10,10,09,09,5.70
2015,10,10,09,10,7.30
2015,10,10,09,11,12.20
2015,10,10,09,12,7.30
2015,10,10,09,13,6.50
2015,10,10,09,14,9.50
2015,10,10,09,15,3.70
2015,10,10,09,16,7.00
2015,10,10,09,17,6.30
2015,10,10,09,18,8.60
2015,10,10,09,19,8.20
2015,10,10,09,20,10.70
2015,10,10,09,21,4.80
2015,10,10,09,22,7.50
2015,10,10,09,23,11.10
2015,10,10,09,24,4.80
2015,10,10,09,25,2.10
2015,10,10,09,26,3.50
2015,10,10,09,27,3.00
2015,10,10,09,28,1.80
2015,10,10,09,29,1.00
2015,10,10,09,30,4.80
2015,10,10,09,31,8.90
2015,10,10,09,32,5.20
2015,10,10,09,33,4.60
2015,10,10,09,34,5.70
2015,10,10,09,35,6.00
2015,10,10,09,36,2.70
2015,10,10,09,37,3.80
2015,10,10,09,38,5.50
2015,10,10,09,39,1.90
2015,10,10,09,40,4.40
2015,10,10,09,41,2.50
2015,10,10,09,42,4.80
2015,10,10,09,43,3.90
2015,10,10,09,44,1.20
2015,10,10,09,45,6.90
2015,10,10,09,46,3.70
2015,10,10,09,47,3.80
2015,10,10,09,48,2.90
2015,10,10,09,49,1.40
2015,10,10,09,50,3.60
2015,10,10,09,51,1.40
2015,10,10,09,52,2.40
2015,10,10,09,53,3.70
2015,10,10,09,54,5.80
2015,10,10,09,55,7.00
2015,10,10,09,56,5.10
2015,10,10,09,57,9.20
2015,10,10,09,58,9.60
2015,10,10,09,59,12.10
2015,10,10,10,00,9.00
2015,10,10,10,01,15.70
2015,10,10,10,02,17.10
2015,10,10,10,03,18.50
2015,10,10,10,04,15.80
2015,10,10,10,05,17.50
2015,10,10,10,06,13.50
2015,10,10,10,07,9.40
2015,10,10,10,08,10.00
2015,10,10,10,09,12.30
2015,10,10,10,10,13.90
2015,10,10,10,11,12.60
2015,10,10,10,12,13.90
2015,10,10,10,13,8.10
2015,10,10,10,14,13.80
2015,10,10,10,15,18.40
2015,10,10,10,16,13.20
2015,10,10,10,17,12.60
2015,10,10,10,18,16.20
2015,10,10,10,19,12.80
2015,10,10,10,20,14.70
2015,10,10,10,21,20.00
2015,10,10,10,22,14.60
2015,10,10,10,23,11.10
2015,10,10,10,24,10.70
2015,10,10,10,25,10.60
2015,10,10,10,26,17.20
2015,10,10,10,27,16.40
2015,10,10,10,28,10.90
2015,10,10,10,29,12.60
2015,10,10,10,30,7.80
2015,10,10,10,31,9.90
2015,10,10,10,32,13.20
2015,10,10,10,33,16.90
2015,10,10,10,34,26.90
2015,10,10,10,35,15.50
2015,10,10,10,36,12.10
2015,10,10,10,37,12.10
2015,10,10,10,38,13.00
2015,10,10,10,39,14.10
2015,10,10,10,40,8.50
2015,10,10,10,41,10.40
2015,10,10,10,42,13.20
2015,10,10,10,43,12.10
2015,10,10,10,44,10.00
2015,10,10,10,45,13.30
2015,10,10,10,46,11.60
2015,10,10,10,47,17.00
2015,10,10,10,48,10.00
2015,10,10,10,49,10.90
2015,10,10,10,50,16.40
2015,10,10,10,51,14.20
2015,10,10,10,52,19.40
2015,10,10,10,53,9.00
2015,10,10,10,54,13.10
2015,10,10,10,55,15.40
2015,10,10,10,56,18.40
2015,10,10,10,57,15.70
2015,10,10,10,58,11.60
2015,10,10,10,59,10.60
2015,10,10,11,00,9.50
2015,10,10,11,01,12.70
2015,10,10,11,02,10.30
2015,10,10,11,03,9.00
2015,10,10,11,04,9.50
2015,10,10,11,05,8.80
2015,10,10,11,06,10.70
2015,10,10,11,07,13.40
2015,10,10,11,08,20.20
2015,10,10,11,09,16.20
2015,10,10,11,10,13.60
2015,10,10,11,11,12.60
2015,10,10,11,12,13.30
2015,10,10,11,13,10.90
2015,10,10,11,14,10.70
2015,10,10,11,15,12.10
2015,10,10,11,16,16.80
2015,10,10,11,17,16.80
2015,10,10,11,18,12.70
2015,10,10,11,19,12.00
2015,10,10,11,20,8.60
2015,10,10,11,21,14.60
2015,10,10,11,22,17.90
2015,10,10,11,23,16.90
2015,10,10,11,24,18.90
2015,10,10,11,25,16.20
2015,10,10,11,26,18.20
2015,10,10,11,27,9.80
2015,10,10,11,28,15.70
2015,10,10,11,29,21.90
2015,10,10,11,30,20.70
2015,10,10,11,31,15.70
2015,10,10,11,32,13.60
2015,10,10,11,33,22.10
2015,10,10,11,34,19.50
2015,10,10,11,35,17.50
2015,10,10,11,36,11.40
2015,10,10,11,37,15.80
2015,10,10,11,38,12.20
2015,10,10,11,39,14.70
2015,10,10,11,40,12.60
2015,10,10,11,41,18.10
2015,10,10,11,42,14.00
2015,10,10,11,43,16.80
2015,10,10,11,44,12.40
2015,10,10,11,45,20.00
2015,10,10,11,46,14.80
2015,10,10,11,47,15.90
2015,10,10,11,48,19.30
2015,10,10,11,49,11.00
2015,10,10,11,50,19.90
2015,10,10,11,51,22.40
2015,10,10,11,52,14.70
2015,10,10,11,53,17.60
2015,10,10,11,54,17.30
2015,10,10,11,55,18.70
2015,10,10,11,56,14.40
2015,10,10,11,57,16.20
2015,10,10,11,58,13.40
2015,10,10,11,59,17.60
2015,10,10,12,00,13.40
2015,10,10,12,01,12.20
2015,10,10,12,02,16.90
2015,10,10,12,03,19.50
2015,10,10,12,04,15.80
2015,10,10,12,05,13.70
2015,10,10,12,06,15.70
2015,10,10,12,07,15.30
2015,10,10,12,08,14.40
2015,10,10,12,09,14.70
2015,10,10,12,10,11.00
2015,10,10,12,11,14.20
2015,10,10,12,12,14.40
2015,10,10,12,13,14.50
2015,10,10,12,14,18.70
2015,10,10,12,15,21.90
2015,10,10,12,16,14.80
2015,10,10,12,17,17.70
2015,10,10,12,18,18.40
2015,10,10,12,19,15.60
2015,10,10,12,20,16.30
2015,10,10,12,21,9.20
2015,10,10,12,22,13.90
2015,10,10,12,23,16.70
2015,10,10,12,24,14.60
2015,10,10,12,25,7.60
2015,10,10,12,26,12.70
2015,10,10,12,27,21.20
2015,10,10,12,28,17.80
2015,10,10,12,29,13.80
2015,10,10,12,30,13.10
2015,10,10,12,31,16.00
2015,10,10,12,32,8.90
2015,10,10,12,33,12.90
2015,10,10,12,34,8.50
2015,10,10,12,35,14.00
2015,10,10,12,36,11.10
2015,10,10,12,37,9.40
2015,10,10,12,38,6.70
2015,10,10,12,39,9.30
2015,10,10,12,40,9.70
2015,10,10,12,41,7.80
2015,10,10,12,42,7.00
2015,10,10,12,43,7.00
2015,10,10,12,44,4.90
2015,10,10,12,45,3.00
2015,10,10,12,46,3.10
2015,10,10,12,47,5.20
2015,10,10,12,48,5.10
2015,10,10,12,49,5.40
2015,10,10,12,50,4.80
2015,10,10,12,51,5.60
2015,10,10,12,52,4.50
2015,10,10,12,53,6.10
2015,10,10,12,54,3.50
2015,10,10,12,55,2.90
2015,10,10,12,56,3.70
2015,10,10,12,57,6.50
2015,10,10,12,58,9.80
2015,10,10,12,59,8.40
2015,10,10,13,00,9.20
2015,10,10,13,01,9.40
2015,10,10,13,02,9.50
2015,10,10,13,03,8.60
2015,10,10,13,04,6.20
2015,10,10,13,05,5.30
2015,10,10,13,06,9.40
2015,10,10,13,07,10.30
2015,10,10,13,08,7.10
2015,10,10,13,09,9.20
2015,10,10,13,10,8.30
2015,10,10,13,11,6.10
2015,10,10,13,12,7.70
2015,10,10,13,13,4.70
2015,10,10,13,14,4.40
2015,10,10,13,15,5.70
2015,10,10,13,16,10.10
2015,10,10,13,17,6.80
2015,10,10,13,18,2.60
2015,10,10,13,19,4.40
2015,10,10,13,20,6.20
2015,10,10,13,21,6.10
2015,10,10,13,22,2.40
2015,10,10,13,23,13.10
2015,10,10,13,24,7.20
2015,10,10,13,25,8.20
2015,10,10,13,26,7.60
2015,10,10,13,27,11.70
2015,10,10,13,28,9.80
2015,10,10,13,29,12.30
2015,10,10,13,30,7.80
2015,10,10,13,31,8.10
2015,10,10,13,32,12.80
2015,10,10,13,33,15.20
2015,10,10,13,34,11.40
2015,10,10,13,35,12.00
2015,10,10,13,36,11.40
2015,10,10,13,37,11.90
2015,10,10,13,38,11.90
2015,10,10,13,39,8.50
2015,10,10,13,40,8.40
2015,10,10,13,41,6.60
2015,10,10,13,42,6.50
2015,10,10,13,43,6.90
2015,10,10,13,44,5.20
2015,10,10,13,45,9.40
2015,10,10,13,46,6.40
2015,10,10,13,47,7.90
2015,10,10,13,48,8.50
2015,10,10,13,49,9.60
2015,10,10,13,50,8.40
2015,10,10,13,51,6.00
2015,10,10,13,52,6.10
2015,10,10,13,53,4.40
2015,10,10,13,54,8.40
2015,10,10,13,55,7.40
2015,10,10,13,56,7.40
2015,10,10,13,57,3.50
2015,10,10,13,58,7.70
2015,10,10,13,59,10.00
2015,10,10,14,00,6.90
2015,10,10,14,01,6.10
2015,10,10,14,02,12.20
2015,10,10,14,03,9.10
2015,10,10,14,04,4.70
2015,10,10,14,05,5.50
2015,10,10,14,06,3.30
2015,10,10,14,07,5.40
2015,10,10,14,08,3.10
2015,10,10,14,09,6.20
2015,10,10,14,10,3.60
2015,10,10,14,11,5.10
2015,10,10,14,12,4.50
2015,10,10,14,13,5.30
2015,10,10,14,14,6.80
2015,10,10,14,15,3.20
2015,10,10,14,16,4.70
2015,10,10,14,17,6.70
2015,10,10,14,18,4.60
2015,10,10,14,19,6.60
2015,10,10,14,20,5.70
2015,10,10,14,21,7.00
2015,10,10,14,22,7.90
2015,10,10,14,23,5.90
2015,10,10,14,24,3.50
2015,10,10,14,25,4.00
2015,10,10,14,26,4.30
2015,10,10,14,27,5.10
2015,10,10,14,28,6.70
2015,10,10,14,29,5.10
2015,10,10,14,30,2.70
2015,10,10,14,31,1.10
2015,10,10,14,32,1.60
2015,10,10,14,33,0.80
2015,10,10,14,34,3.40
2015,10,10,14,35,3.40
2015,10,10,14,36,1.50
2015,10,10,14,37,2.30
2015,10,10,14,38,1.00
2015,10,10,14,39,1.30
2015,10,10,14,40,1.70
2015,10,10,14,41,0.90
2015,10,10,14,42,2.00
2015,10,10,14,43,2.60
2015,10,10,14,44,3.90
2015,10,10,14,45,3.30
2015,10,10,14,46,3.60
2015,10,10,14,47,5.30
2015,10,10,14,48,2.70
2015,10,10,14,49,2.40
2015,10,10,14,50,6.30
2015,10,10,14,51,6.90
2015,10,10,14,52,3.20
2015,10,10,14,53,1.90
2015,10,10,14,54,7.00
2015,10,10,14,55,8.10
2015,10,10,14,56,6.70
2015,10,10,14,57,3.20
2015,10,10,14,58,1.60
2015,10,10,14,59,4.30
2015,10,10,15,00,5.40
2015,10,10,15,01,4.70
2015,10,10,15,02,5.20
2015,10,10,15,03,6.60
2015,10,10,15,04,3.20
2015,10,10,15,05,3.50
2015,10,10,15,06,4.80
2015,10,10,15,07,5.10
2015,10,10,15,08,4.00
2015,10,10,15,09,3.70
2015,10,10,15,10,2.40
2015,10,10,15,11,2.00
2015,10,10,15,12,2.70
2015,10,10,15,13,3.40
2015,10,10,15,14,5.10
2015,10,10,15,15,4.00
2015,10,10,15,16,3.10
2015,10,10,15,17,2.50
2015,10,10,15,18,1.60
2015,10,10,15,19,0.80
2015,10,10,15,20,0.00
2015,10,10,15,21,3.00
2015,10,10,15,22,4.30
2015,10,10,15,23,3.80
2015,10,10,15,24,2.00
2015,10,10,15,25,2.60
2015,10,10,15,26,1.40
2015,10,10,15,27,0.90
2015,10,10,15,28,1.10
2015,10,10,15,29,3.40
2015,10,10,15,30,4.20
2015,10,10,15,31,2.10
2015,10,10,15,32,0.70
2015,10,10,15,33,3.80
2015,10,10,15,34,5.30
2015,10,10,15,35,3.70
2015,10,10,15,36,2.50
2015,10,10,15,37,2.70
2015,10,10,15,38,1.90
2015,10,10,15,39,3.20
2015,10,10,15,40,4.60
2015,10,10,15,41,5.20
2015,10,10,15,42,4.50
2015,10,10,15,43,4.80
2015,10,10,15,44,3.00
2015,10,10,15,45,2.90
2015,10,10,15,46,1.10
2015,10,10,15,47,3.40
2015,10,10,15,48,4.00
2015,10,10,15,49,5.20
2015,10,10,15,50,3.90
2015,10,10,15,51,3.70
2015,10,10,15,52,4.10
2015,10,10,15,53,4.40
2015,10,10,15,54,5.10
2015,10,10,15,55,5.80
2015,10,10,15,56,5.60
2015,10,10,15,57,6.30
2015,10,10,15,58,5.10
2015,10,10,15,59,3.40
2015,10,10,16,00,1.70
2015,10,10,16,01,3.00
2015,10,10,16,02,3.00
2015,10,10,16,03,3.40
2015,10,10,16,04,4.20
2015,10,10,16,05,4.30
2015,10,10,16,06,5.80
2015,10,10,16,07,10.70
2015,10,10,16,08,9.70
2015,10,10,16,09,7.80
2015,10,10,16,10,6.90
2015,10,10,16,11,8.40
2015,10,10,16,12,7.00
2015,10,10,16,13,6.10
2015,10,10,16,14,5.40
2015,10,10,16,15,2.20
2015,10,10,16,16,2.10
2015,10,10,16,17,2.60
2015,10,10,16,18,3.50
2015,10,10,16,19,0.10
2015,10,10,16,20,0.70
2015,10,10,16,21,2.00
2015,10,10,16,22,1.70
2015,10,10,16,23,2.70
2015,10,10,16,24,2.20
2015,10,10,16,25,1.90
2015,10,10,16,26,2.60
2015,10,10,16,27,3.90
2015,10,10,16,28,4.00
2015,10,10,16,29,3.00
2015,10,10,16,30,2.60
2015,10,10,16,31,3.20
2015,10,10,16,32,4.70
2015,10,10,16,33,3.50
2015,10,10,16,34,4.70
2015,10,10,16,35,4.80
2015,10,10,16,36,3.40
2015,10,10,16,37,2.60
2015,10,10,16,38,4.00
2015,10,10,16,39,4.20
2015,10,10,16,40,1.40
2015,10,10,16,41,2.20
2015,10,10,16,42,4.20
2015,10,10,16,43,3.90
2015,10,10,16,44,3.50
2015,10,10,16,45,3.40
2015,10,10,16,46,0.50
2015,10,10,16,47,0.60
2015,10,10,16,48,1.20
2015,10,10,16,49,1.00
2015,10,10,16,50,0.90
2015,10,10,16,51,1.20
2015,10,10,16,52,0.70
2015,10,10,16,53,1.00
2015,10,10,16,54,1.60
2015,10,10,16,55,1.70
2015,10,10,16,56,0.50
2015,10,10,16,57,0.80
2015,10,10,16,58,1.60
2015,10,10,16,59,3.20
2015,10,10,17,00,4.90
2015,10,10,17,01,5.30
2015,10,10,17,02,3.90
2015,10,10,17,03,3.60
2015,10,10,17,04,2.70
2015,10,10,17,05,2.90
2015,10,10,17,06,2.00
2015,10,10,17,07,1.70
2015,10,10,17,08,0.20
2015,10,10,17,09,0.10
2015,10,10,17,10,1.00
2015,10,10,17,11,1.30
2015,10,10,17,12,0.90
2015,10,10,17,13,0.80
2015,10,10,17,14,0.30
2015,10,10,17,15,1.00
2015,10,10,17,16,1.40
2015,10,10,17,17,1.60
2015,10,10,17,18,0.90
2015,10,10,17,19,1.30
2015,10,10,17,20,1.10
2015,10,10,17,21,0.40
2015,10,10,17,22,1.70
2015,10,10,17,23,1.80
2015,10,10,17,24,2.70
2015,10,10,17,25,2.30
2015,10,10,17,26,0.50
2015,10,10,17,27,2.00
2015,10,10,17,28,0.80
2015,10,10,17,29,0.80
2015,10,10,17,30,0.40
2015,10,10,17,31,2.30
2015,10,10,17,32,2.60
2015,10,10,17,33,1.00
2015,10,10,17,34,1.00
2015,10,10,17,35,1.40
2015,10,10,17,36,2.80
2015,10,10,17,37,2.80
2015,10,10,17,38,2.50
2015,10,10,17,39,1.80
2015,10,10,17,40,1.60
2015,10,10,17,41,0.40
2015,10,10,17,42,0.20
2015,10,10,17,43,0.20
2015,10,10,17,44,1.40
2015,10,10,17,45,2.30
2015,10,10,17,46,2.20
2015,10,10,17,47,0.80
2015,10,10,17,48,0.50
2015,10,10,17,49,0.70
2015,10,10,17,50,0.70
2015,10,10,17,51,2.30
2015,10,10,17,52,2.50